SAZMSABE

Guest
Details From SAZM - Mar Del Plata Brig Gen D Bartolome
To SABE - Aeroparque Jorge Newbery
Flight Number -
Tags decoded
Created
Modified
Stats Distance 210 nm / 389 km
Max Altitude 0 ft / 0 m
Waypoints 4
Social Downloads 17
Likes 0
Share VATSIM

Download

Looking for another format? Having issues loading an existing format? Contact us
Advertisement - Login to hide

Notes

Requested: SAZM PULPA UW31 TENIL SABE Unmatched points: UW31

Route

SAZM PULPA TENIL SABE

ID Type Via Altitude Latitude Longitude Leg Dist Tot Dist Heading (true) Name
O SAZM APT - 0 ft / 0 m -37.93419˚ -57.57340˚ - 0 nm - Mar Del Plata Brig Gen D Bartolome
PULPA FIX - 0 ft / 0 m -37.01667˚ -57.67861˚ 55 nm 55 nm 355° / 355° -
TENIL FIX - 0 ft / 0 m -35.54111˚ -57.83389˚ 88 nm 144 nm 355° / 355° -
O SABE APT - 0 ft / 0 m -34.55941˚ -58.41575˚ 65 nm 209 nm 334° / 334° Aeroparque Jorge Newbery

Altitude Profile

Advertisement - Login to hide

Weather


0- 5 10 15 20 25 30 35+ Temperature / ° C

Clouds and Precipitation
Forecast for 2017-12-13 12:00 UTC. Updated 2 hours ago

Ground ~20,000 ft ~40,000 ft Winds

SAZM

Details ICAO SAZM (MDQ)
Name Mar Del Plata Brig Gen D Bartolome
Region Argentina
Timezone America/Argentina/Buenos_Aires (UTC-3.0)
Stats Elevation 71 ft / 22 m (AMSL)
Location -37.934190° -57.573395°
Runways 1
Magnetic Variation 7.579° W

METAR

SAZM 131100Z 33007KT CAVOK 20/17 Q1011

Decode

TAF

TAF SAZM 130500Z 1306/1406 34010KT CAVOK TX28/1316Z TN16/1310Z BECMG 1312/1314 20020KT 9999 SCT020 BKN040 OVC100 BECMG 1317/1319 15020KT BECMG 1323/1401 4000 TSRA SCT015 BKN040 FEW040CB

Decode

Departure Runways

ID Width Length Bearing (true) Bearing (mag) Surface Threshold Offset Overrun Length
13 197 ft / 60 m 7,204 ft / 2,196 m 122.66° 130.24° Asphalt 0 ft / 0 m 196 ft / 60 m
31 197 ft / 60 m 7,204 ft / 2,196 m 302.65° 310.23° Asphalt 0 ft / 0 m 0 ft / 0 m

SABE

Details ICAO SABE (AEP)
Name Aeroparque Jorge Newbery
Region Argentina
Timezone Unknown (UTC+0.0)
Stats Elevation 17 ft / 5 m (AMSL)
Location -34.559414° -58.415749°
Runways 1
Magnetic Variation 8.980° W

METAR

SABE 131100Z 03006KT CAVOK 24/16 Q1011

Decode

TAF

TAF SABE 130500Z 1306/1406 14010KT CAVOK TX32/1318Z TN22/1309Z BECMG 1307/1309 05010KT BECMG 1319/1321 25015G25KT 9999 SCT030 BKN100 BECMG 1323/1401 27015KT 6000 TSRA SCT020 FEW045CB BKN040

Decode

Destination Runways

ID Width Length Bearing (true) Bearing (mag) Surface Threshold Offset Overrun Length
13 131 ft / 40 m 6,882 ft / 2,098 m 123.87° 132.85° Concrete 0 ft / 0 m 791 ft / 241 m
31 131 ft / 40 m 6,882 ft / 2,098 m 303.86° 312.84° Concrete 991 ft / 302 m 0 ft / 0 m

Approach Navaids

Runway Type Ident Frequency Range Bearing (true) Bearing (mag) Slope Elevation
13 Localiser AE 109.50 MHz 18 nm / 33 km 123.95° 132.93° - 17 ft / 5 m (AMSL)
13 Glidescope AE 109.50 MHz 10 nm / 19 km 124.47° 133.45° 3.00° 17 ft / 5 m (AMSL)
13 DME AE 109.50 MHz 18 nm / 33 km - - - 17 ft / 5 m (AMSL)

Popular Alternatives